CMP448 MPTO-KIAD

Flight info

Callsign CMP448
Flight time N/A
Altitude 33000
Route EGETA3B EGETA DCT COLBY/N0463F340 DCT EPSIM UM779 ZEUSS/N0461F350 Y329 ZFP AR23 OZENA DCT SEELO DCT GARIC Q129 YERBA DCT TRSSK CAVLR6
Aircraft B738/M-SDE2E3FGHIRWXY/LB1

Departure

Time 2026-04-29 21:19
Airport Tocumen International Airport (MPTO)

Arrival

Time N/A
Airport Washington Dulles International Airport (KIAD)
Time Latitude Longitude Altitude Speed Heading
2026-04-29 20:37 9.07045 -79.38492 30 ft 0 kts 301°
2026-04-29 21:11 9.07043 -79.38489 29 ft 3 kts 301°
2026-04-29 21:11 9.07028 -79.38467 29 ft 4 kts 315°
2026-04-29 21:12 9.07007 -79.38451 29 ft 4 kts 341°
2026-04-29 21:12 9.06985 -79.38450 17 ft 2 kts 28°
2026-04-29 21:12 9.06984 -79.38450 16 ft 0 kts 28°
2026-04-29 21:15 9.06987 -79.38449 18 ft 2 kts 28°
2026-04-29 21:15 9.07017 -79.38432 8 ft 7 kts 28°
2026-04-29 21:15 9.07069 -79.38404 29 ft 9 kts 28°
2026-04-29 21:15 9.07126 -79.38391 29 ft 9 kts 339°
2026-04-29 21:16 9.07165 -79.38434 30 ft 8 kts 302°
2026-04-29 21:16 9.07196 -79.38483 30 ft 8 kts 301°
2026-04-29 21:16 9.07224 -79.38531 31 ft 8 kts 300°
2026-04-29 21:16 9.07249 -79.38579 33 ft 8 kts 292°
2026-04-29 21:17 9.07263 -79.38630 37 ft 7 kts 284°
2026-04-29 21:17 9.07279 -79.38679 44 ft 7 kts 292°
2026-04-29 21:17 9.07314 -79.38708 46 ft 7 kts
2026-04-29 21:17 9.07327 -79.38703 43 ft 0 kts 29°
2026-04-29 21:18 9.07358 -79.38685 46 ft 24 kts 31°
2026-04-29 21:18 9.07710 -79.38472 48 ft 93 kts 31°
2026-04-29 21:18 9.08452 -79.38027 45 ft 153 kts 31°
2026-04-29 21:18 9.09484 -79.37394 265 ft 183 kts 30°
2026-04-29 21:19 9.10554 -79.36710 1039 ft 183 kts 34°
2026-04-29 21:19 9.11556 -79.35931 1930 ft 184 kts 36°
2026-04-29 21:19 9.12561 -79.35115 2751 ft 186 kts 36°
2026-04-29 21:19 9.13567 -79.34298 3509 ft 186 kts 36°
2026-04-29 21:20 9.14641 -79.33440 3812 ft 207 kts 36°
2026-04-29 21:20 9.15832 -79.32485 4020 ft 227 kts 37°
2026-04-29 21:20 9.17124 -79.31454 4329 ft 247 kts 37°
2026-04-29 21:20 9.18544 -79.30328 4646 ft 268 kts 37°
2026-04-29 21:21 9.20026 -79.29157 5345 ft 271 kts 37°
2026-04-29 21:21 9.21495 -79.27988 6207 ft 268 kts 38°
2026-04-29 21:21 9.22981 -79.26799 6767 ft 276 kts 38°
2026-04-29 21:21 9.24501 -79.25584 7428 ft 279 kts 38°
2026-04-29 21:22 9.26030 -79.24363 8119 ft 282 kts 38°
2026-04-29 21:22 9.27588 -79.23121 8751 ft 287 kts 38°
2026-04-29 21:22 9.29141 -79.21883 9462 ft 288 kts 38°
2026-04-29 21:22 9.30728 -79.20620 10051 ft 293 kts 38°
2026-04-29 21:23 9.32369 -79.19313 10352 ft 310 kts 39°
2026-04-29 21:23 9.34125 -79.17915 10491 ft 331 kts 39°
2026-04-29 21:23 9.35985 -79.16433 10689 ft 348 kts 39°
2026-04-29 21:23 9.37908 -79.14903 11145 ft 354 kts 39°
2026-04-29 21:24 9.39858 -79.13351 11689 ft 358 kts 39°
2026-04-29 21:24 9.41822 -79.11788 12263 ft 361 kts 39°
2026-04-29 21:24 9.43806 -79.10208 12800 ft 365 kts 39°
2026-04-29 21:24 9.45824 -79.08614 13343 ft 368 kts 37°
2026-04-29 21:25 9.48131 -79.07483 13799 ft 375 kts 14°
2026-04-29 21:25 9.50722 -79.07082 14294 ft 378 kts
2026-04-29 21:25 9.53316 -79.06828 14776 ft 380 kts